Location: The Saddle
(36.8333°N, 80.3417°W)
Time: 04:46:52
(UTC-04:00)

deb Explorer IX - Visible Passes

Search period start: 30 May 2024 00:00
Search period end: 09 June 2024 00:00
Orbit: 512 x 889 km, 38.7° (Epoch: 30 May)

Date Brightness Start Highest point End Pass type
(mag) Time Alt. Az. Time Alt. Az. Time Alt. Az.
30 May ? 22:30:07 10° WNW 22:35:30 84° NNE 22:37:30 36° E visible
31 May ? 00:14:56 10° W 00:16:14 17° W 00:16:14 17° W visible
31 May ? 21:28:56 10° W 21:34:33 74° N 21:39:33 10° E visible
31 May ? 23:13:41 10° WNW 23:18:22 55° SW 23:18:22 55° SW visible
01 Jun ? 22:12:28 10° WNW 22:17:59 80° SSW 22:20:27 30° ESE visible
01 Jun ? 23:57:35 10° W 23:59:11 17° WSW 23:59:11 17° WSW visible
02 Jun ? 21:11:12 10° WNW 21:16:58 84° N 21:22:07 10° E visible
02 Jun ? 22:56:02 10° W 23:01:04 41° SSW 23:01:14 41° SSW visible
03 Jun ? 21:54:39 10° WNW 22:00:12 62° SSW 22:03:16 23° SE visible
03 Jun ? 23:40:23 10° W 23:41:59 15° WSW 23:41:59 15° WSW visible
04 Jun ? 22:38:21 10° W 22:43:04 29° SW 22:44:01 27° SSW visible
05 Jun ? 21:36:42 10° W 21:42:10 45° SSW 21:46:02 16° SE visible
05 Jun ? 23:24:01 10° WSW 23:24:45 11° SW 23:24:45 11° SW visible
06 Jun ? 22:20:45 10° W 22:24:46 20° SW 22:26:46 17° S visible
07 Jun ? 21:18:43 10° W 21:23:52 33° SSW 21:28:38 10° SSE visible
08 Jun ? 22:03:35 10° WSW 22:06:15 13° SW 22:08:49 10° SSW visible
